Погода в Соколовке

Казахстан     55°06′41″N   69°12′20″E
темп.,
°C
ветер,
м/с
пор.,
м/с
влажн.,
%
обл.,
%
осадки,
мм/ч
давл.,
гПа
погр.,
м
2 марта, вт
вт200:00−19зсз229992 0.1 101720
03:00−20зюз2310094 0.0 101720
06:00−20зюз239896 0.1 101752
09:00−18юз239792 0.1 1016123
12:00−16юз349285 0.1 1016273
15:00−14юз3593100 0.0 1014335
18:00−15ююз359598 0.1 1014151
21:00−18ююз449719 0.0 101372
3 марта, ср
ср300:00−17ююз499727 0.0 1013170
03:00−17ююз5119684 0.0 1012264
06:00−17ююз6129384 0.0 1011339
09:00−17ююз61293100 0.0 1010393
12:00−13ююз71393100 0.3 1009545
15:00−10юз81293100 0.4 1008643
18:00−9ююз81493100 1.1 1007718
21:00−6ююз81593100 0.4 1007730
4 марта, чт
чт400:00−4юз71492100 0.6 1006657
03:00−3юз71394100 0.3 1004640
06:00−3ююз71395100 0.8 1004630
09:00−2ююз61396100 0.7 1002730
12:000ююз81297100 1.4 1001873
15:000юз712100100 0.4 1000877
18:000юз71294100 1.1 1000791
21:00−2з61195100 1.4 1000722
5 марта, пт
пт500:00−7зюз51293100 1.6 1003403
03:00−10зюз6129164 0.0 1006313
06:00−13юз5119232 0.0 1008235
09:00−13ююз7139123 0.0 1009345
12:00−9юз9159161 0.1 1007712
15:00−6юз111788100 0.2 10061033
18:00−2юз121992100 0.9 10051241
21:00−2юз112093100 0.6 10041148
6 марта, сб
сб600:00−1зюз101793100 1.3 10051103
03:00−1зюз91595100 0.6 1006907
06:00−2зюз71396100 1.5 1007698
09:00−6з41089100 0.8 1009330
12:00−6з6108850 0.8 1011553
15:00−6з610820 0.0 1014706
18:00−8зюз478935 0.0 1015201
21:00−12юз349279 0.0 101540